Weather History for Mount Ida, AR

Change the Weather History Date:

Monday, October 29, 2012

  Actual Average (KHOT) Record (KHOT)
Temperature  
Mean Temperature 44 °F -  
Max Temperature 62 °F 70 °F 85 °F (1950)
Min Temperature 28 °F 47 °F 32 °F (2008)
Degree Days  
Heating Degree Days 20    
Moisture  
Dew Point 32 °F    
Average Humidity 72    
Maximum Humidity 97    
Minimum Humidity 30    
Precipitation  
Precipitation 0.00 in - - ()
Sea Level Pressure  
Sea Level Pressure 30.24 in    
Wind  
Wind Speed 0 mph (South)    
Max Wind Speed 5 mph    
Max Gust Speed -    
Visibility 10 miles    
Events      
Averages and records for this station are not official NWS values.
T = Trace of Precipitation, MM = Missing Value Source: NWS Daily Summary

Daily Weather History Graph

Daily Weather History Graph

Search for Another Location

Airport:

Trip Planner

Search our weather history database for the weather conditions in past years. The results will help you decide how hot, cold, wet, or windy it might be!

Date:

Astronomy

Oct. 29, 2012 Rise Set
Actual Time 7:32 AM CDT 6:23 PM CDT
Civil Twilight 7:06 AM CDT 6:49 PM CDT
Nautical Twilight 6:36 AM CDT 7:18 PM CDT
Astronomical Twilight 6:07 AM CDT 7:47 PM CDT
Moon 6:17 PM CDT (10/29) 7:22 AM CDT (10/29)
Length of Visible Light 11h 42m
Length of Day
10h 50m
Full, 100% of the Moon is Illuminated
Oct 29
Full
Oct 29
Full
Nov 6
Last Quarter
Nov 13
New
Nov 20
First Quarter

Hourly Weather History & Observations

Time (CDT) Temp. Windchill Dew Point Humidity Pressure Visibility Wind Dir Wind Speed Gust Speed Precip Events Conditions
12:53 AM 34.0 °F - 33.1 °F 96% 30.25 in 10.0 mi Calm Calm - N/A   Clear
1:53 AM 34.0 °F - 32.0 °F 92% 30.25 in 10.0 mi Calm Calm - N/A   Clear
2:53 AM 32.0 °F - 30.9 °F 96% 30.26 in 10.0 mi Calm Calm - N/A   Clear
3:53 AM 30.9 °F - 30.0 °F 96% 30.25 in 10.0 mi Calm Calm - N/A   Clear
4:53 AM 30.9 °F - 28.9 °F 92% 30.27 in 10.0 mi Calm Calm - N/A   Clear
5:53 AM 30.0 °F - 28.9 °F 96% 30.27 in 10.0 mi Calm Calm - N/A   Clear
6:53 AM 28.9 °F - 28.0 °F 96% 30.29 in 10.0 mi Calm Calm - N/A   Clear
7:53 AM 30.0 °F - 28.9 °F 96% 30.30 in 10.0 mi Calm Calm - N/A   Clear
8:53 AM 34.0 °F - 33.1 °F 96% 30.33 in 10.0 mi Calm Calm - N/A   Clear
9:53 AM 42.1 °F 40.2 °F 34.0 °F 73% 30.34 in 10.0 mi West 3.5 mph - N/A   Clear
10:53 AM 48.0 °F - 28.9 °F 48% 30.34 in 10.0 mi East 4.6 mph - N/A   Clear
11:53 AM 52.0 °F - 30.0 °F 43% 30.32 in 10.0 mi Calm Calm - N/A   Clear
12:53 PM 55.9 °F - 30.9 °F 39% 30.28 in 10.0 mi Calm Calm - N/A   Clear
1:53 PM 57.9 °F - 30.9 °F 36% 30.24 in 10.0 mi Calm Calm - N/A   Clear
2:53 PM 59.0 °F - 30.0 °F 33% 30.20 in 10.0 mi Calm Calm - N/A   Clear
3:53 PM 60.1 °F - 30.0 °F 32% 30.18 in 10.0 mi Calm Calm - N/A   Clear
4:53 PM 61.0 °F - 28.9 °F 30% 30.17 in 10.0 mi North 3.5 mph - N/A   Clear
5:53 PM 55.9 °F - 32.0 °F 40% 30.16 in 10.0 mi Calm Calm - N/A   Clear
6:53 PM 48.0 °F - 35.1 °F 61% 30.17 in 10.0 mi Calm Calm - N/A   Clear
7:53 PM 44.1 °F - 36.0 °F 73% 30.17 in 10.0 mi Calm Calm - N/A   Clear
8:53 PM 41.0 °F - 37.0 °F 86% 30.17 in 10.0 mi Calm Calm - N/A   Clear
9:53 PM 39.0 °F - 37.0 °F 93% 30.16 in 10.0 mi Calm Calm - N/A   Clear
10:53 PM 37.0 °F - 36.0 °F 96% 30.15 in 10.0 mi Calm Calm - N/A   Clear
11:53 PM 36.0 °F - 35.1 °F 97% 30.14 in 10.0 mi Calm Calm - N/A   Clear